Weather History for Thermal, CA

Change the Weather History Date:

Saturday, March 9, 2013

  Actual Average Record
Temperature  
Mean Temperature 56 °F 63 °F  
Max Temperature 74 °F 80 °F 96 °F (1972)
Min Temperature 38 °F 46 °F 32 °F (2002)
Degree Days  
Heating Degree Days 9 4  
Month to date heating degree days 28 39  
Since 1 July heating degree days 1116 1104  
Cooling Degree Days 0 1  
Month to date cooling degree days 9 9  
Year to date cooling degree days 9 21  
Growing Degree Days 5 (Base 50)    
Moisture  
Dew Point 37 °F    
Average Humidity 54    
Maximum Humidity 85    
Minimum Humidity 23    
Precipitation  
Precipitation 0.00 in 0.01 in 0.14 in (1962)
Month to date precipitation 0.07 0.17  
Year to date precipitation 0.44 1.50  
Since 1 July precipitation 2.62 2.88  
Snow  
Snow 0.00 in - - ()
Month to date snowfall 0.0  
Year to date snowfall 0.0  
Since 1 July snowfall 0.0  
Snow Depth 0.00 in    
Sea Level Pressure  
Sea Level Pressure 30.02 in    
Wind  
Wind Speed 4 mph (NW)    
Max Wind Speed 17 mph    
Max Gust Speed 21 mph    
Visibility 10 miles    
Events      
T = Trace of Precipitation, MM = Missing Value Source: NWS Daily Summary

Daily Weather History Graph

Daily Weather History Graph

Search for Another Location

Airport:

Trip Planner

Search our weather history database for the weather conditions in past years. The results will help you decide how hot, cold, wet, or windy it might be!

Date:

Astronomy

Mar. 09, 2013 Rise Set
Actual Time 6:02 AM PST 5:48 PM PST
Civil Twilight 5:37 AM PST 6:12 PM PST
Nautical Twilight 5:08 AM PST 6:41 PM PST
Astronomical Twilight 4:39 AM PST 7:10 PM PST
Moon 4:24 AM PST (3/9) 3:58 PM PST (3/9)
Length of Visible Light 12h 35m
Length of Day
11h 45m
Waning Crescent, 5% of the Moon is Illuminated
Mar 9
Waning Crescent
Mar 11
New
Mar 19
First Quarter
Mar 27
Full
Apr 2
Last Quarter

Hourly Weather History & Observations

Time (PST) Temp. Windchill Dew Point Humidity Pressure Visibility Wind Dir Wind Speed Gust Speed Precip Events Conditions
12:52 AM 43.0 °F 38.8 °F 34.0 °F 71% 29.94 in 10.0 mi SE 6.9 mph - N/A   Clear
1:52 AM 43.0 °F 39.5 °F 35.1 °F 74% 29.96 in 10.0 mi Variable 5.8 mph - N/A   Scattered Clouds
2:52 AM 45.0 °F - 36.0 °F 71% 29.96 in 10.0 mi Calm Calm - N/A   Clear
3:52 AM 43.0 °F 41.3 °F 35.1 °F 74% 29.97 in 10.0 mi West 3.5 mph - N/A   Clear
4:52 AM 37.9 °F - 33.1 °F 83% 29.96 in 10.0 mi Calm Calm - N/A   Clear
5:52 AM 37.9 °F 34.4 °F 33.1 °F 83% 29.98 in 10.0 mi WSW 4.6 mph - N/A   Clear
6:52 AM 44.1 °F 42.5 °F 36.0 °F 73% 29.99 in 10.0 mi ENE 3.5 mph - N/A   Clear
7:52 AM 55.0 °F - 39.0 °F 55% 30.03 in 10.0 mi Calm Calm - N/A   Clear
8:52 AM 59.0 °F - 39.0 °F 48% 30.05 in 10.0 mi Variable 4.6 mph - N/A   Clear
9:52 AM 62.1 °F - 39.0 °F 43% 30.05 in 10.0 mi Calm Calm - N/A   Clear
10:52 AM 64.0 °F - 36.0 °F 35% 30.04 in 10.0 mi WSW 5.8 mph - N/A   Clear
11:52 AM 66.9 °F - 35.1 °F 31% 30.02 in 10.0 mi Variable 3.5 mph - N/A   Clear
12:52 PM 70.0 °F - 35.1 °F 28% 30.00 in 10.0 mi North 6.9 mph - N/A   Clear
1:52 PM 73.0 °F - 33.1 °F 23% 29.99 in 10.0 mi WNW 12.7 mph 17.3 mph N/A   Scattered Clouds
2:52 PM 72.0 °F - 34.0 °F 25% 29.99 in 10.0 mi NW 10.4 mph - N/A   Mostly Cloudy
3:52 PM 71.1 °F - 34.0 °F 26% 29.99 in 10.0 mi NNW 10.4 mph 19.6 mph N/A   Mostly Cloudy
4:52 PM 70.0 °F - 36.0 °F 29% 30.01 in 10.0 mi NW 9.2 mph - N/A   Clear
5:52 PM 66.0 °F - 37.9 °F 36% 30.02 in 10.0 mi NNW 6.9 mph - N/A   Partly Cloudy
6:52 PM 63.0 °F - 39.9 °F 43% 30.04 in 10.0 mi NNW 10.4 mph - N/A   Clear
7:52 PM 62.1 °F - 41.0 °F 46% 30.07 in 10.0 mi NNW 9.2 mph - N/A   Clear
8:52 PM 61.0 °F - 42.1 °F 50% 30.09 in 10.0 mi North 6.9 mph - N/A   Clear
9:52 PM 57.9 °F - 42.1 °F 56% 30.09 in 10.0 mi North 6.9 mph - N/A   Clear
10:52 PM 59.0 °F - 42.1 °F 53% 30.10 in 10.0 mi NNW 11.5 mph - N/A   Clear
11:52 PM 59.0 °F - 42.1 °F 53% 30.11 in 10.0 mi NW 10.4 mph - N/A   Clear